This demonstration page uses our WeatherBlox Daily Observations layout. Learn more.

Left ArrowRight Arrow

Hourly Observations for July 30, 2016

Temp ( °F °C ) Dew Point ( °F °C ) Humidity (%) Winds ( mph kmh ) Pressure ( in mb ) Visibility ( mi km ) Precip ( " mm )
12:58 am 00:58 Clear 65 18.3 62 16.7 90 90 Calm 30.02 1017 10 16 0.00 0.00
1:58 am 01:58 Clear 62 16.6 62 16.6 100 100 Calm 30.01 1016 10 16 0.00 0.00
2:58 am 02:58 Clear 62 16.5 62 16.5 100 100 NE 2 4 30.01 1016 10 16 0.00 0.00
3:58 am 03:58 Clear 61 16 61 16 100 100 Calm 30.01 1016 10 16 0.00 0.00
4:58 am 04:58 Clear 59 15 59 15 100 100 NE 2 4 30.01 1016 10 16 0.00 0.00
5:58 am 05:58 Mostly Clear 59 15 59 15 100 100 NE 2 4 30.01 1016 10 16 0.00 0.00
6:01 am 06:01 Clear with Fog 59 15 59 15 100 100 NE 2 4 30.00 1016 10 16 0.00 0.00
6:10 am 06:10 Clear with Fog 59 15 59 15 100 100 NE 1 2 30.00 1016 10 16 0.00 0.00
6:35 am 06:35 Partly Cloudy with Patchy Fog 59 15 59 15 100 100 Calm 30.00 1016 10 16 0.00 0.00
6:54 am 06:54 Partly Cloudy with Patchy Fog 61 16 61 16 100 100 Calm 29.97 1015 10 16 0.00 0.00
6:58 am 06:58 Partly Cloudy with Patchy Fog 61 16 61 15.9 99 99 Calm 30.01 1016 10 16 0.00 0.00
7:02 am 07:02 Partly Cloudy 59 15 59 15 100 100 SSE 1 2 30.03 1017 10 16 0.00 0.00
7:59 am 07:59 Mostly Cloudy 64 17.8 64 17.8 100 100 SE 3 6 30.04 1017 10 16 0.00 0.00
8:58 am 08:58 Mostly Cloudy 66 18.9 66 18.9 100 100 Calm 30.04 1017 10 16 0.00 0.00
9:58 am 09:58 Cloudy 69 20.5 69 20.5 100 100 VRB 2 4 30.04 1017 10 16 0.00 0.00
10:58 am 10:58 Cloudy 71 21.9 65 18.5 81 81 E 6 9 30.03 1017 10 16 0.00 0.00
11:58 am 11:58 Mostly Cloudy 73 22.5 65 18.6 79 79 ENE 5 7 30.03 1017 10 16 0.00 0.00
12:58 pm 12:58 Mostly Cloudy 75 23.7 65 18.6 73 73 E 7 11 30.01 1016 10 16 0.00 0.00
1:58 pm 13:58 Mostly Cloudy 78 25.3 65 18.2 65 65 ESE 9 15 29.99 1016 10 16 0.00 0.00
2:58 pm 14:58 Sunny 80 26.5 65 18.2 60 60 SSE 9 15 29.98 1015 10 16 0.00 0.00
3:58 pm 15:58 Hazy 81 27 64 18 58 58 SE 7 11 29.97 1015 6 10 0.00 0.00
4:58 pm 16:58 Mostly Sunny 82 27.6 65 18.2 57 57 SE 8 13 29.96 1015 10 16 0.00 0.00
5:58 pm 17:58 Mostly Sunny 81 27.3 65 18.6 59 59 SSE 7 11 29.96 1014 10 16 0.00 0.00
6:58 pm 18:58 Mostly Sunny 78 25.7 65 18.5 65 65 SSE 7 11 29.94 1014 10 16 0.00 0.00
7:58 pm 19:58 Mostly Sunny 77 24.9 65 18.4 67 67 SSE 9 15 29.93 1014 10 16 0.00 0.00
8:58 pm 20:58 Clear 72 22.4 67 19.2 82 82 ESE 6 9 29.93 1014 10 16 0.00 0.00
9:58 pm 21:58 Clear 69 20.7 67 19.2 91 91 E 5 7 29.96 1014 10 16 0.00 0.00
10:58 pm 22:58 Clear 68 19.8 66 18.7 93 93 E 5 7 29.96 1015 10 16 0.00 0.00
11:58 pm 23:58 Clear 69 20.4 66 19.1 92 92 E 6 9 29.96 1015 10 16 0.00 0.00

Powered by AerisWeather